Temp
48 48 49 49 49 48 46 46 47 47 46 45 45 45 45 46 46 45 44 44 45 45 44 43 43 42 41 40 40 40 40 39 39 40 40 40 39 38 38 37 37 37 37 37 37 37 37 37 38 38 39 40 40 40 39 39 39 39 40 40 40 40 40 40 41 41 41 41 41
47 47 48 50 49 48 46 46 46 45 44 44 45 45 45 46 46 45 44 43 44 43 43 42 42 41 40 40 40 40 39 39 39 39 39 39 38 37 37 37 36 37 37 37 37 37 38 37 38 38 39 39 39 39 40 39 39 39 40 40 40 40 40 40 41 41 41 41 41
46 46 47 47 47 46 46 46 45 44 44 43 43 44 44 45 45 45 44 43 42 42 42 41 41 41 40 39 38 38 38 39 38 39 39 39 37 37 36 37 36 36 37 37 37 37 37 37 38 39 39 39 40 40 40 39 39 39 40 40 40 39 39 40 41 41 41 40 40
44 45 46 46 46 47 47 47 46 45 44 43 42 42 43 44 44 43 42 41 41 41 41 42 41 41 40 39 38 37 37 38 38 38 39 38 37 37 36 36 36 36 36 36 36 36 36 36 37 39 40 40 40 41 41 40 39 39 39 40 39 39 39 40 41 40 40 40 40
43 44 45 46 46 47 48 48 46 45 44 42 42 42 42 42 42 42 42 42 42 42 41 40 40 40 40 39 38 37 37 37 39 39 38 38 37 36 35 35 36 36 36 35 35 35 35 35 37 38 39 40 40 40 40 40 39 38 38 38 38 39 39 40 40 40 39 39 40
43 43 44 45 45 46 47 47 46 45 44 43 44 44 43 42 42 43 43 44 43 41 40 39 40 39 39 38 37 37 36 36 37 37 37 37 37 36 35 35 35 35 36 35 35 35 35 35 37 38 38 38 39 39 39 37 38 38 38 38 38 38 39 39 39 39 39 39 39
43 43 43 43 44 45 45 45 45 44 44 45 45 45 44 43 43 44 44 43 41 40 39 40 40 39 38 37 37 37 36 36 36 35 35 36 36 36 36 36 35 35 35 35 35 35 35 35 37 38 39 40 39 39 38 36 37 37 38 38 38 38 38 39 39 39 39 38 38
43 43 43 43 43 44 44 44 44 44 44 45 46 45 44 43 43 43 42 41 41 40 40 40 39 38 38 37 37 37 36 36 36 35 35 35 35 35 35 35 35 35 35 35 35 35 35 35 36 37 38 39 39 39 38 35 36 37 37 38 38 38 38 38 38 38 38 38 37
42 42 42 42 43 43 43 43 44 44 45 45 45 45 44 43 42 42 42 42 41 40 39 39 37 37 36 36 36 36 36 36 36 36 35 35 35 35 35 36 36 36 35 35 35 35 35 35 36 37 38 38 38 38 37 35 35 36 37 37 38 38 38 38 38 37 37 37 36
42 42 41 42 42 42 42 42 43 44 44 44 44 43 43 44 43 42 42 42 41 40 39 38 36 36 35 35 36 36 36 36 36 36 36 36 36 36 36 36 37 37 36 35 35 35 35 35 36 37 37 37 38 37 36 34 35 35 36 37 37 37 37 37 37 36 36 36 35
43 42 42 42 42 42 42 41 42 43 43 43 42 42 43 44 42 42 41 41 40 39 38 37 36 36 36 35 36 36 36 35 36 36 36 37 36 36 36 36 36 36 36 36 35 35 35 36 36 36 36 36 36 36 35 34 34 34 35 36 36 36 36 36 36 36 35 35 35
43 42 42 42 41 41 42 42 42 43 43 42 41 41 41 41 40 40 40 39 39 38 37 35 35 36 36 36 36 37 37 36 36 36 36 36 36 35 35 35 35 35 35 35 35 35 35 36 36 36 36 36 36 36 36 34 34 34 34 34 35 35 35 35 35 35 35 35 34
43 42 41 41 40 41 41 42 42 42 42 41 40 40 40 40 39 39 38 38 39 38 37 35 35 36 37 37 37 37 37 36 36 36 37 36 35 35 35 35 35 35 35 35 34 34 35 35 35 35 36 36 36 36 36 35 34 34 34 34 34 34 34 34 35 35 34 34 34
43 42 41 40 40 40 41 41 41 41 41 40 40 39 39 38 38 38 38 38 38 37 36 35 36 37 37 37 37 36 36 36 35 35 36 36 35 35 35 35 34 34 35 35 34 34 34 35 35 35 35 36 36 36 35 35 34 34 34 34 34 34 34 34 34 34 34 33 33
42 41 40 39 40 40 41 41 41 41 40 40 39 38 37 37 37 37 38 37 37 37 37 36 37 37 37 36 36 36 35 35 35 35 35 35 35 34 34 35 33 33 34 34 33 33 34 34 34 35 35 35 35 35 35 34 34 34 33 33 34 34 34 34 34 34 33 33 33
41 40 39 39 40 40 41 41 41 40 40 40 38 37 37 37 37 37 37 36 36 36 36 36 37 36 36 36 35 35 35 34 34 34 34 35 35 35 35 34 33 33 33 33 33 33 33 33 34 34 34 35 35 35 34 34 33 33 33 33 33 33 33 34 33 33 33 33 33
41 40 39 39 40 40 40 40 40 40 39 39 37 36 36 36 36 37 37 37 37 37 36 36 36 36 36 36 36 35 34 34 34 34 35 36 36 36 35 35 34 33 32 32 33 33 33 32 33 33 33 33 33 33 34 33 33 33 33 33 33 33 33 33 33 33 33 33 33
40 39 39 39 40 40 40 39 39 39 39 38 37 36 36 36 36 37 37 38 37 37 37 36 35 35 35 36 35 35 35 35 35 35 36 36 36 36 36 35 34 33 32 31 32 32 33 33 32 32 32 32 32 32 33 33 33 33 33 33 33 33 32 32 32 32 33 33 34
40 39 39 39 40 40 40 39 39 38 38 37 36 36 35 35 35 36 36 37 37 37 37 36 35 35 35 35 34 35 36 36 35 36 36 36 35 35 35 34 33 32 31 30 31 31 32 33 33 32 32 32 32 32 32 32 33 33 33 33 32 32 31 31 31 32 33 34 34
40 40 39 40 40 40 40 40 39 38 38 37 36 35 35 34 35 36 36 36 37 37 36 36 35 35 34 34 34 34 36 36 36 35 35 35 35 34 34 34 32 31 29 29 29 30 31 32 33 33 32 32 32 32 32 32 32 32 32 32 32 32 31 32 33 33 34 34 35
41 41 40 40 40 40 40 39 39 38 37 36 36 35 35 35 35 36 37 37 36 35 35 36 36 35 35 34 34 34 35 36 35 35 35 35 35 34 34 33 32 30 29 28 29 29 30 31 32 32 32 32 32 32 32 33 33 33 33 34 34 34 34 34 35 35 35 35 35
42 41 41 40 40 39 39 38 37 36 36 36 36 36 35 35 36 36 36 36 35 35 35 35 35 36 35 35 35 35 35 36 35 35 35 35 35 35 34 33 31 29 28 27 28 28 28 29 30 30 30 30 30 30 32 33 34 34 35 35 35 35 36 36 36 36 36 36 36
42 41 40 39 39 39 38 37 36 36 36 36 36 36 36 36 35 35 34 34 35 35 35 35 35 35 35 35 35 35 34 34 34 34 34 34 34 33 33 32 30 28 28 28 28 28 27 27 27 27 27 28 28 29 31 33 34 34 34 34 35 35 36 36 37 36 36 36 37
42 40 39 38 37 37 37 36 36 36 36 36 36 36 36 35 34 33 33 33 34 34 34 35 35 35 34 33 33 33 33 34 34 34 34 33 33 32 32 31 30 29 29 30 31 31 30 31 30 29 29 29 30 32 33 34 33 33 33 33 34 35 36 37 37 37 37 37 37
40 39 38 36 36 36 36 36 37 37 37 37 36 36 35 34 34 33 33 33 33 33 33 34 34 33 32 32 32 32 32 33 34 34 34 34 33 33 32 32 32 31 30 31 34 37 38 39 38 37 36 36 36 36 36 34 33 33 34 34 35 36 37 38 37 37 37 37 37
39 38 37 36 36 36 37 37 38 39 38 37 36 36 35 34 34 34 34 34 33 33 33 33 33 33 33 33 32 32 32 33 33 33 34 34 34 34 34 34 35 33 31 33 37 40 42 43 43 43 42 41 40 38 36 34 34 34 35 35 36 37 37 38 38 38 38 38 37
38 37 37 35 36 37 38 38 39 38 38 37 36 36 35 34 34 34 34 34 34 33 33 33 33 34 35 34 33 33 33 34 34 33 33 33 34 34 35 36 36 34 33 35 39 41 43 44 45 45 45 44 42 40 38 37 36 36 36 36 36 37 37 37 37 38 38 39 38
38 38 37 36 37 38 38 38 38 38 38 37 37 36 34 33 33 34 34 34 34 33 33 33 33 34 35 34 34 34 34 34 34 34 33 33 33 34 35 36 36 36 36 39 41 43 44 45 45 46 46 46 44 41 39 38 38 38 38 37 37 37 37 37 37 37 37 38 38
39 38 37 38 38 39 38 38 38 38 38 37 36 35 33 33 34 34 34 34 34 35 35 35 35 35 34 35 35 34 34 34 34 34 33 33 33 34 35 36 36 37 38 41 42 43 44 45 45 46 46 46 45 43 41 40 40 40 40 39 39 38 38 37 37 37 37 37 37
39 39 39 39 39 39 39 38 38 38 37 36 34 34 34 33 34 34 34 34 35 36 37 36 35 35 35 35 35 35 35 35 34 34 33 33 33 34 35 37 37 37 38 41 42 43 44 45 45 46 46 46 45 44 42 40 40 40 40 40 39 38 38 38 38 37 37 37 37
39 39 40 40 40 40 39 38 37 36 35 35 34 34 34 34 34 34 35 35 35 36 36 35 34 35 35 35 35 35 35 35 35 35 34 34 35 36 37 37 37 37 38 40 42 43 44 45 45 45 46 46 46 44 42 41 40 40 40 40 39 39 38 37 37 37 36 36 36
39 40 41 41 41 40 39 37 36 35 34 34 34 34 34 34 34 34 34 35 35 35 35 34 34 35 35 35 35 35 35 35 35 35 35 35 36 36 37 37 37 37 38 40 42 43 44 44 45 45 46 46 46 44 42 41 40 39 39 38 38 37 37 37 37 37 36 36 36
39 40 41 42 41 39 38 36 35 34 34 34 34 34 34 34 34 33 33 34 35 35 35 35 35 36 36 36 36 36 36 36 36 37 37 38 37 37 36 37 37 38 39 41 42 43 44 45 45 46 46 46 46 45 43 42 41 40 39 38 37 36 36 36 36 37 37 37 37
39 40 40 41 40 39 37 35 34 34 34 34 34 34 34 34 34 34 34 35 35 35 35 36 36 36 37 37 37 37 37 38 38 38 37 37 37 36 36 36 37 39 41 42 43 44 45 45 46 46 46 46 45 44 43 42 41 40 39 38 37 36 36 35 35 36 37 37 37
38 40 40 40 39 38 36 35 33 33 33 34 34 34 34 34 35 35 36 37 36 35 34 34 35 35 36 36 36 36 37 38 38 38 37 37 36 35 35 36 37 39 41 42 43 44 45 45 45 46 46 46 44 43 42 41 40 39 38 38 37 36 35 35 35 36 36 36 37
39 40 40 39 38 37 36 34 33 33 33 34 34 34 34 34 35 35 36 37 37 35 34 34 34 34 35 35 35 36 37 37 37 37 37 37 36 35 35 36 37 38 40 42 43 44 44 45 45 45 45 45 43 42 41 40 39 38 38 37 37 37 36 35 35 35 36 36 36
38 40 40 39 37 36 35 34 34 34 34 35 35 35 35 35 35 35 35 37 36 35 35 34 35 35 36 36 36 37 37 37 37 37 37 37 37 36 36 37 37 38 40 41 42 43 44 44 45 45 44 43 42 41 40 39 39 38 37 37 37 37 37 36 36 35 35 35 36
38 39 39 39 37 36 35 34 35 35 36 36 36 36 36 36 36 35 35 37 36 35 35 35 35 36 36 37 37 37 37 37 37 37 37 37 37 37 37 37 37 38 39 41 42 42 43 44 44 44 44 43 42 41 40 39 39 38 38 37 37 37 37 37 37 36 36 35 37
36 37 38 39 37 36 35 35 35 36 37 37 36 36 36 35 36 36 36 37 36 36 36 36 36 37 37 37 37 37 37 36 36 36 37 37 37 37 38 37 38 38 39 41 42 42 43 43 44 44 44 43 42 41 40 39 38 38 37 37 37 37 37 37 37 37 37 36 38
35 36 37 38 37 36 36 36 36 37 37 37 37 36 36 36 37 37 37 37 36 35 36 36 37 37 38 38 38 37 37 37 36 36 36 37 37 38 39 39 39 39 40 41 42 42 43 43 43 44 44 43 42 41 40 39 38 37 37 37 37 36 37 37 37 37 37 37 38
35 35 36 37 37 37 37 37 37 37 36 36 36 37 37 37 37 37 36 36 35 35 35 36 36 37 37 38 38 37 37 36 37 37 37 37 37 38 39 39 39 39 39 40 41 41 42 42 43 43 43 43 42 41 40 39 37 36 36 36 36 36 37 37 37 37 38 38 38
MSLP
1019.72 1019.88 1020.04 1020.24 1020.40 1020.56 1020.76 1020.96 1021.12 1021.24 1021.52 1021.72 1021.96 1022.16 1022.32 1022.44 1022.60 1022.80 1022.92 1022.96 1023.04 1023.16 1023.28 1023.40 1023.52 1023.68 1023.80 1023.96 1024.04 1024.12 1024.24 1024.32 1024.40 1024.40 1024.44 1024.48 1024.52 1024.56 1024.64 1024.64 1024.68 1024.68 1024.68 1024.68 1024.76 1024.76 1024.80 1024.84 1024.84 1024.84 1024.84 1024.80 1024.80 1024.80 1024.80 1024.84 1024.80 1024.80 1024.76 1024.72 1024.68 1024.68 1024.64 1024.60 1024.52 1024.52 1024.52 1024.52 1024.52
1019.72 1019.84 1019.96 1020.12 1020.28 1020.52 1020.72 1020.96 1021.12 1021.32 1021.52 1021.64 1021.80 1021.96 1022.12 1022.24 1022.40 1022.60 1022.76 1022.84 1022.88 1023.00 1023.16 1023.32 1023.40 1023.56 1023.72 1023.84 1023.96 1024.08 1024.16 1024.24 1024.32 1024.40 1024.40 1024.44 1024.52 1024.56 1024.56 1024.60 1024.68 1024.68 1024.68 1024.68 1024.68 1024.68 1024.72 1024.76 1024.76 1024.76 1024.76 1024.76 1024.76 1024.76 1024.80 1024.80 1024.80 1024.76 1024.72 1024.68 1024.64 1024.64 1024.64 1024.52 1024.48 1024.44 1024.40 1024.44 1024.48
1019.68 1019.84 1020.00 1020.12 1020.32 1020.52 1020.68 1020.92 1021.12 1021.32 1021.48 1021.64 1021.76 1021.92 1022.04 1022.12 1022.24 1022.40 1022.56 1022.72 1022.80 1022.84 1022.96 1023.20 1023.36 1023.52 1023.68 1023.84 1023.96 1024.04 1024.12 1024.20 1024.28 1024.32 1024.40 1024.40 1024.52 1024.52 1024.52 1024.52 1024.60 1024.64 1024.64 1024.64 1024.68 1024.68 1024.68 1024.68 1024.68 1024.68 1024.68 1024.72 1024.72 1024.68 1024.72 1024.76 1024.76 1024.72 1024.68 1024.56 1024.56 1024.56 1024.52 1024.48 1024.40 1024.40 1024.40 1024.40 1024.40
1019.64 1019.80 1019.96 1020.12 1020.24 1020.36 1020.48 1020.68 1020.96 1021.16 1021.40 1021.60 1021.80 1021.96 1022.04 1022.12 1022.20 1022.36 1022.52 1022.60 1022.72 1022.80 1022.92 1023.08 1023.24 1023.44 1023.60 1023.72 1023.92 1024.04 1024.12 1024.20 1024.24 1024.28 1024.36 1024.40 1024.44 1024.48 1024.52 1024.52 1024.52 1024.56 1024.60 1024.64 1024.64 1024.68 1024.68 1024.68 1024.68 1024.68 1024.68 1024.64 1024.68 1024.68 1024.64 1024.68 1024.68 1024.68 1024.60 1024.52 1024.52 1024.52 1024.44 1024.40 1024.36 1024.36 1024.36 1024.32 1024.28
1019.60 1019.68 1019.76 1019.88 1020.04 1020.12 1020.24 1020.44 1020.72 1021.00 1021.28 1021.52 1021.72 1021.92 1022.04 1022.12 1022.20 1022.32 1022.40 1022.52 1022.68 1022.80 1022.92 1023.04 1023.20 1023.40 1023.52 1023.68 1023.84 1023.96 1024.08 1024.16 1024.20 1024.24 1024.28 1024.32 1024.40 1024.44 1024.52 1024.52 1024.48 1024.52 1024.52 1024.56 1024.64 1024.64 1024.68 1024.68 1024.68 1024.68 1024.64 1024.64 1024.60 1024.60 1024.56 1024.60 1024.64 1024.60 1024.56 1024.52 1024.52 1024.48 1024.40 1024.36 1024.32 1024.32 1024.32 1024.24 1024.24
1019.52 1019.60 1019.68 1019.84 1019.96 1020.12 1020.24 1020.40 1020.60 1020.88 1021.16 1021.40 1021.56 1021.76 1021.96 1022.04 1022.12 1022.20 1022.28 1022.44 1022.60 1022.80 1022.92 1023.04 1023.16 1023.36 1023.52 1023.64 1023.80 1023.92 1024.04 1024.12 1024.20 1024.24 1024.24 1024.28 1024.36 1024.40 1024.40 1024.44 1024.48 1024.48 1024.52 1024.52 1024.56 1024.60 1024.64 1024.64 1024.64 1024.60 1024.56 1024.60 1024.56 1024.52 1024.56 1024.64 1024.60 1024.52 1024.52 1024.44 1024.40 1024.40 1024.36 1024.28 1024.24 1024.24 1024.20 1024.16 1024.12
1019.36 1019.52 1019.68 1019.84 1019.96 1020.12 1020.24 1020.40 1020.60 1020.80 1021.04 1021.24 1021.40 1021.56 1021.72 1021.88 1021.96 1022.08 1022.24 1022.40 1022.56 1022.76 1022.92 1023.00 1023.12 1023.24 1023.44 1023.60 1023.72 1023.84 1023.96 1024.12 1024.16 1024.24 1024.24 1024.24 1024.32 1024.32 1024.32 1024.36 1024.40 1024.44 1024.44 1024.48 1024.52 1024.56 1024.56 1024.56 1024.56 1024.56 1024.52 1024.52 1024.52 1024.52 1024.52 1024.60 1024.56 1024.52 1024.40 1024.32 1024.28 1024.24 1024.24 1024.20 1024.16 1024.16 1024.12 1024.08 1024.00
1019.28 1019.44 1019.60 1019.76 1019.88 1020.04 1020.16 1020.36 1020.52 1020.80 1021.00 1021.16 1021.24 1021.40 1021.52 1021.68 1021.84 1022.00 1022.16 1022.40 1022.56 1022.68 1022.80 1022.96 1023.08 1023.20 1023.36 1023.52 1023.68 1023.76 1023.88 1024.00 1024.08 1024.12 1024.20 1024.20 1024.24 1024.24 1024.24 1024.28 1024.28 1024.36 1024.40 1024.44 1024.48 1024.48 1024.48 1024.52 1024.52 1024.48 1024.48 1024.44 1024.40 1024.40 1024.44 1024.52 1024.48 1024.40 1024.32 1024.24 1024.16 1024.16 1024.12 1024.12 1024.12 1024.08 1024.00 1023.96 1023.92
1019.36 1019.44 1019.56 1019.72 1019.88 1019.96 1020.12 1020.24 1020.44 1020.64 1020.80 1020.96 1021.12 1021.24 1021.44 1021.60 1021.76 1021.96 1022.12 1022.32 1022.44 1022.60 1022.72 1022.88 1023.00 1023.16 1023.32 1023.48 1023.60 1023.68 1023.84 1023.92 1023.96 1024.04 1024.08 1024.12 1024.12 1024.12 1024.16 1024.16 1024.20 1024.24 1024.32 1024.40 1024.40 1024.40 1024.44 1024.48 1024.44 1024.40 1024.40 1024.40 1024.36 1024.36 1024.36 1024.40 1024.40 1024.32 1024.24 1024.16 1024.08 1024.04 1024.00 1024.00 1023.96 1023.96 1023.92 1023.88 1023.84
1019.28 1019.44 1019.64 1019.80 1019.88 1019.96 1020.12 1020.24 1020.40 1020.52 1020.68 1020.88 1021.08 1021.24 1021.40 1021.52 1021.68 1021.88 1022.04 1022.20 1022.40 1022.56 1022.68 1022.84 1022.96 1023.16 1023.28 1023.40 1023.52 1023.64 1023.76 1023.84 1023.84 1023.92 1023.96 1023.96 1023.96 1024.00 1024.04 1024.04 1024.08 1024.12 1024.20 1024.24 1024.32 1024.36 1024.40 1024.40 1024.36 1024.32 1024.32 1024.32 1024.24 1024.24 1024.28 1024.32 1024.28 1024.24 1024.12 1024.08 1023.96 1023.92 1023.84 1023.84 1023.84 1023.84 1023.84 1023.80 1023.76
1019.12 1019.36 1019.52 1019.68 1019.84 1019.96 1020.12 1020.28 1020.40 1020.52 1020.68 1020.84 1021.08 1021.24 1021.40 1021.52 1021.68 1021.84 1022.00 1022.16 1022.36 1022.52 1022.68 1022.80 1022.96 1023.08 1023.24 1023.32 1023.40 1023.52 1023.64 1023.68 1023.76 1023.80 1023.84 1023.84 1023.84 1023.88 1023.96 1023.96 1023.96 1024.04 1024.12 1024.12 1024.24 1024.24 1024.28 1024.24 1024.24 1024.24 1024.24 1024.24 1024.24 1024.20 1024.20 1024.20 1024.16 1024.12 1024.04 1023.96 1023.88 1023.84 1023.76 1023.68 1023.68 1023.68 1023.68 1023.68 1023.64
1019.08 1019.28 1019.48 1019.64 1019.84 1019.96 1020.08 1020.24 1020.40 1020.52 1020.68 1020.84 1021.08 1021.24 1021.36 1021.52 1021.68 1021.84 1022.00 1022.16 1022.28 1022.44 1022.60 1022.76 1022.84 1022.96 1023.08 1023.20 1023.32 1023.40 1023.52 1023.60 1023.64 1023.68 1023.68 1023.72 1023.80 1023.84 1023.84 1023.88 1023.92 1023.96 1024.00 1024.04 1024.12 1024.16 1024.16 1024.16 1024.16 1024.12 1024.12 1024.12 1024.12 1024.08 1024.04 1024.08 1024.04 1023.96 1023.92 1023.84 1023.80 1023.72 1023.68 1023.52 1023.52 1023.52 1023.56 1023.52 1023.52
1019.00 1019.24 1019.52 1019.68 1019.84 1019.92 1020.04 1020.16 1020.36 1020.52 1020.68 1020.84 1021.04 1021.20 1021.36 1021.52 1021.68 1021.84 1021.96 1022.12 1022.24 1022.40 1022.52 1022.72 1022.80 1022.92 1022.96 1023.08 1023.20 1023.28 1023.40 1023.48 1023.52 1023.52 1023.56 1023.60 1023.68 1023.72 1023.76 1023.76 1023.84 1023.84 1023.88 1023.96 1024.04 1024.04 1024.04 1024.08 1024.04 1024.04 1023.96 1023.96 1023.96 1023.92 1023.88 1023.92 1023.88 1023.84 1023.76 1023.68 1023.64 1023.56 1023.52 1023.44 1023.40 1023.40 1023.40 1023.44 1023.40
1019.00 1019.24 1019.44 1019.64 1019.76 1019.84 1019.96 1020.12 1020.32 1020.48 1020.64 1020.80 1021.00 1021.16 1021.36 1021.52 1021.68 1021.80 1021.92 1022.00 1022.12 1022.28 1022.48 1022.64 1022.76 1022.80 1022.88 1022.96 1023.08 1023.20 1023.28 1023.36 1023.40 1023.44 1023.48 1023.52 1023.56 1023.60 1023.64 1023.68 1023.68 1023.72 1023.80 1023.84 1023.92 1023.96 1023.96 1023.92 1023.92 1023.88 1023.84 1023.84 1023.76 1023.76 1023.72 1023.72 1023.68 1023.64 1023.60 1023.52 1023.48 1023.40 1023.32 1023.24 1023.24 1023.24 1023.24 1023.24 1023.24
1019.04 1019.20 1019.40 1019.52 1019.68 1019.80 1019.88 1020.08 1020.24 1020.40 1020.60 1020.76 1020.96 1021.12 1021.32 1021.52 1021.68 1021.76 1021.84 1021.96 1022.04 1022.20 1022.36 1022.52 1022.60 1022.72 1022.80 1022.92 1023.00 1023.12 1023.20 1023.24 1023.28 1023.36 1023.40 1023.40 1023.44 1023.48 1023.52 1023.52 1023.56 1023.64 1023.68 1023.68 1023.80 1023.84 1023.84 1023.84 1023.80 1023.76 1023.72 1023.68 1023.60 1023.56 1023.56 1023.56 1023.52 1023.48 1023.40 1023.36 1023.28 1023.24 1023.16 1023.12 1023.12 1023.12 1023.12 1023.12 1023.04
1019.00 1019.16 1019.32 1019.48 1019.56 1019.68 1019.84 1019.96 1020.16 1020.36 1020.52 1020.68 1020.88 1021.08 1021.24 1021.40 1021.56 1021.68 1021.80 1021.88 1022.00 1022.12 1022.24 1022.36 1022.48 1022.64 1022.76 1022.84 1022.96 1023.04 1023.12 1023.16 1023.20 1023.24 1023.24 1023.28 1023.32 1023.36 1023.40 1023.40 1023.48 1023.52 1023.52 1023.60 1023.64 1023.68 1023.68 1023.68 1023.68 1023.68 1023.60 1023.52 1023.48 1023.44 1023.40 1023.36 1023.36 1023.32 1023.24 1023.20 1023.12 1023.08 1023.00 1022.96 1022.96 1022.96 1022.92 1022.92 1022.88
1018.92 1019.12 1019.24 1019.32 1019.44 1019.56 1019.72 1019.88 1020.08 1020.24 1020.40 1020.60 1020.84 1021.00 1021.12 1021.32 1021.48 1021.60 1021.64 1021.72 1021.84 1022.00 1022.16 1022.24 1022.40 1022.52 1022.68 1022.76 1022.84 1022.92 1023.00 1023.04 1023.12 1023.12 1023.12 1023.12 1023.12 1023.16 1023.20 1023.24 1023.28 1023.36 1023.40 1023.48 1023.52 1023.52 1023.52 1023.52 1023.52 1023.52 1023.52 1023.44 1023.36 1023.28 1023.24 1023.20 1023.16 1023.12 1023.04 1023.00 1022.96 1022.92 1022.84 1022.80 1022.80 1022.76 1022.72 1022.72 1022.68
1018.80 1018.96 1019.12 1019.20 1019.28 1019.44 1019.60 1019.80 1019.96 1020.12 1020.32 1020.52 1020.68 1020.88 1021.04 1021.16 1021.32 1021.44 1021.52 1021.56 1021.68 1021.84 1022.00 1022.16 1022.32 1022.44 1022.52 1022.64 1022.72 1022.80 1022.84 1022.92 1022.92 1022.96 1022.96 1022.96 1022.96 1023.00 1023.04 1023.08 1023.12 1023.20 1023.28 1023.40 1023.40 1023.36 1023.32 1023.32 1023.36 1023.36 1023.36 1023.32 1023.24 1023.16 1023.08 1023.04 1022.96 1022.88 1022.80 1022.76 1022.72 1022.68 1022.68 1022.68 1022.64 1022.60 1022.56 1022.52 1022.40
1018.68 1018.80 1018.96 1019.08 1019.12 1019.24 1019.44 1019.64 1019.84 1020.00 1020.16 1020.36 1020.52 1020.72 1020.88 1021.04 1021.16 1021.28 1021.40 1021.52 1021.56 1021.68 1021.84 1022.04 1022.20 1022.36 1022.40 1022.48 1022.56 1022.64 1022.68 1022.72 1022.76 1022.80 1022.80 1022.80 1022.84 1022.88 1022.92 1022.96 1023.00 1023.08 1023.20 1023.24 1023.24 1023.24 1023.20 1023.16 1023.16 1023.16 1023.16 1023.12 1023.08 1022.96 1022.92 1022.84 1022.80 1022.68 1022.60 1022.56 1022.52 1022.48 1022.48 1022.44 1022.44 1022.40 1022.36 1022.28 1022.24
1018.48 1018.64 1018.76 1018.84 1018.96 1019.12 1019.32 1019.52 1019.68 1019.84 1020.04 1020.24 1020.40 1020.60 1020.76 1020.92 1021.00 1021.12 1021.24 1021.40 1021.52 1021.60 1021.72 1021.88 1022.04 1022.20 1022.32 1022.36 1022.44 1022.52 1022.52 1022.56 1022.60 1022.64 1022.68 1022.68 1022.72 1022.76 1022.80 1022.84 1022.88 1023.00 1023.12 1023.12 1023.12 1023.12 1023.04 1023.00 1022.96 1022.96 1022.92 1022.88 1022.80 1022.76 1022.68 1022.60 1022.52 1022.48 1022.40 1022.40 1022.32 1022.28 1022.24 1022.20 1022.16 1022.12 1022.08 1022.04 1021.96
1018.24 1018.40 1018.52 1018.68 1018.80 1019.00 1019.16 1019.36 1019.52 1019.72 1019.92 1020.12 1020.28 1020.44 1020.64 1020.76 1020.92 1021.00 1021.12 1021.24 1021.40 1021.56 1021.68 1021.80 1021.88 1022.04 1022.16 1022.24 1022.32 1022.40 1022.40 1022.40 1022.48 1022.52 1022.52 1022.52 1022.56 1022.60 1022.68 1022.72 1022.80 1022.92 1022.96 1023.00 1022.96 1022.92 1022.84 1022.80 1022.76 1022.68 1022.68 1022.64 1022.56 1022.52 1022.44 1022.36 1022.28 1022.24 1022.20 1022.12 1022.04 1022.00 1021.96 1021.88 1021.88 1021.84 1021.80 1021.76 1021.68
1018.00 1018.16 1018.32 1018.52 1018.72 1018.92 1019.12 1019.28 1019.48 1019.68 1019.84 1020.00 1020.16 1020.32 1020.48 1020.68 1020.80 1020.92 1021.04 1021.20 1021.36 1021.52 1021.60 1021.68 1021.76 1021.84 1021.96 1022.04 1022.12 1022.20 1022.24 1022.32 1022.36 1022.40 1022.40 1022.40 1022.40 1022.44 1022.52 1022.64 1022.68 1022.80 1022.80 1022.80 1022.76 1022.68 1022.68 1022.64 1022.56 1022.52 1022.44 1022.40 1022.36 1022.28 1022.20 1022.12 1022.04 1021.96 1021.84 1021.84 1021.72 1021.68 1021.68 1021.64 1021.56 1021.52 1021.48 1021.44 1021.40
1017.84 1018.08 1018.28 1018.52 1018.68 1018.88 1019.08 1019.24 1019.44 1019.60 1019.72 1019.88 1020.08 1020.24 1020.40 1020.56 1020.72 1020.88 1021.04 1021.20 1021.32 1021.40 1021.52 1021.56 1021.68 1021.72 1021.84 1021.92 1021.96 1022.08 1022.12 1022.20 1022.24 1022.24 1022.28 1022.28 1022.32 1022.36 1022.44 1022.52 1022.60 1022.64 1022.64 1022.56 1022.52 1022.52 1022.48 1022.40 1022.36 1022.28 1022.24 1022.24 1022.16 1022.08 1021.96 1021.84 1021.80 1021.68 1021.64 1021.56 1021.52 1021.44 1021.40 1021.32 1021.28 1021.24 1021.24 1021.12 1021.12
1017.84 1018.04 1018.24 1018.52 1018.68 1018.88 1019.04 1019.24 1019.40 1019.48 1019.64 1019.80 1019.96 1020.12 1020.28 1020.48 1020.68 1020.84 1021.00 1021.16 1021.24 1021.32 1021.40 1021.48 1021.56 1021.68 1021.76 1021.84 1021.96 1021.96 1022.00 1022.04 1022.04 1022.08 1022.12 1022.12 1022.20 1022.24 1022.32 1022.40 1022.44 1022.40 1022.40 1022.32 1022.24 1022.24 1022.24 1022.12 1022.04 1022.00 1021.96 1021.92 1021.84 1021.76 1021.68 1021.56 1021.52 1021.48 1021.40 1021.36 1021.24 1021.16 1021.08 1020.96 1020.96 1020.96 1020.92 1020.84 1020.80
1017.80 1018.00 1018.24 1018.48 1018.68 1018.84 1018.96 1019.12 1019.20 1019.32 1019.52 1019.68 1019.84 1020.04 1020.24 1020.40 1020.60 1020.76 1020.92 1021.08 1021.16 1021.24 1021.32 1021.40 1021.52 1021.60 1021.72 1021.84 1021.84 1021.88 1021.92 1021.92 1021.92 1021.88 1021.88 1021.96 1022.00 1022.08 1022.12 1022.20 1022.16 1022.12 1022.12 1022.08 1021.96 1021.84 1021.72 1021.64 1021.56 1021.52 1021.52 1021.48 1021.40 1021.36 1021.28 1021.24 1021.24 1021.20 1021.16 1021.08 1020.96 1020.88 1020.76 1020.68 1020.60 1020.60 1020.56 1020.56 1020.52
1017.84 1018.00 1018.20 1018.40 1018.56 1018.72 1018.84 1018.92 1019.00 1019.12 1019.36 1019.56 1019.80 1019.96 1020.16 1020.36 1020.52 1020.68 1020.80 1020.96 1021.04 1021.16 1021.24 1021.32 1021.44 1021.52 1021.60 1021.68 1021.72 1021.76 1021.76 1021.76 1021.76 1021.76 1021.76 1021.80 1021.80 1021.84 1021.88 1021.88 1021.84 1021.84 1021.84 1021.72 1021.56 1021.44 1021.32 1021.24 1021.12 1021.12 1021.04 1021.00 1020.96 1020.96 1020.96 1020.96 1020.96 1020.92 1020.84 1020.76 1020.72 1020.64 1020.52 1020.40 1020.28 1020.24 1020.20 1020.20 1020.20
1017.84 1017.96 1018.12 1018.28 1018.48 1018.56 1018.68 1018.76 1018.88 1019.08 1019.28 1019.52 1019.72 1019.92 1020.08 1020.24 1020.44 1020.60 1020.68 1020.80 1020.92 1021.04 1021.12 1021.24 1021.36 1021.40 1021.40 1021.52 1021.52 1021.56 1021.56 1021.52 1021.52 1021.60 1021.64 1021.64 1021.64 1021.64 1021.56 1021.52 1021.48 1021.52 1021.52 1021.40 1021.28 1021.12 1021.04 1020.96 1020.80 1020.72 1020.68 1020.60 1020.56 1020.60 1020.60 1020.56 1020.56 1020.56 1020.52 1020.48 1020.44 1020.40 1020.28 1020.16 1020.04 1019.96 1019.88 1019.84 1019.84
1017.72 1017.84 1018.04 1018.24 1018.36 1018.40 1018.52 1018.64 1018.80 1019.04 1019.24 1019.40 1019.64 1019.84 1020.00 1020.24 1020.40 1020.52 1020.60 1020.68 1020.80 1020.96 1021.08 1021.12 1021.20 1021.24 1021.24 1021.32 1021.36 1021.32 1021.32 1021.32 1021.40 1021.40 1021.48 1021.48 1021.52 1021.48 1021.40 1021.28 1021.24 1021.20 1021.12 1021.04 1020.96 1020.84 1020.72 1020.64 1020.52 1020.48 1020.40 1020.32 1020.24 1020.24 1020.24 1020.24 1020.20 1020.20 1020.20 1020.16 1020.08 1020.04 1020.00 1019.92 1019.80 1019.72 1019.68 1019.60 1019.60
1017.56 1017.68 1017.88 1018.08 1018.20 1018.28 1018.44 1018.64 1018.80 1018.96 1019.12 1019.36 1019.56 1019.80 1020.00 1020.16 1020.28 1020.40 1020.52 1020.64 1020.76 1020.84 1020.92 1020.96 1021.00 1021.08 1021.16 1021.16 1021.12 1021.12 1021.12 1021.16 1021.20 1021.24 1021.28 1021.32 1021.28 1021.24 1021.16 1021.04 1020.96 1020.88 1020.80 1020.68 1020.64 1020.52 1020.44 1020.40 1020.28 1020.20 1020.12 1020.08 1019.96 1019.92 1019.88 1019.88 1019.88 1019.84 1019.80 1019.76 1019.76 1019.68 1019.68 1019.60 1019.52 1019.48 1019.44 1019.40 1019.36
1017.44 1017.56 1017.76 1017.88 1018.00 1018.20 1018.40 1018.52 1018.68 1018.88 1019.12 1019.36 1019.56 1019.76 1019.96 1020.08 1020.24 1020.32 1020.40 1020.52 1020.56 1020.60 1020.68 1020.76 1020.84 1020.92 1020.96 1020.92 1020.92 1020.96 1020.96 1020.96 1021.00 1021.08 1021.12 1021.12 1021.08 1020.96 1020.84 1020.76 1020.68 1020.60 1020.52 1020.44 1020.40 1020.28 1020.24 1020.12 1020.04 1019.96 1019.88 1019.84 1019.72 1019.68 1019.64 1019.60 1019.56 1019.52 1019.48 1019.40 1019.40 1019.36 1019.32 1019.28 1019.24 1019.20 1019.16 1019.12 1019.12
1017.40 1017.48 1017.56 1017.72 1017.92 1018.12 1018.28 1018.48 1018.68 1018.88 1019.12 1019.36 1019.56 1019.72 1019.84 1020.00 1020.12 1020.20 1020.28 1020.40 1020.40 1020.40 1020.48 1020.64 1020.72 1020.72 1020.72 1020.72 1020.76 1020.80 1020.80 1020.80 1020.80 1020.84 1020.88 1020.84 1020.76 1020.60 1020.52 1020.48 1020.40 1020.36 1020.28 1020.24 1020.12 1020.08 1019.96 1019.92 1019.84 1019.68 1019.64 1019.52 1019.44 1019.40 1019.32 1019.24 1019.24 1019.24 1019.20 1019.12 1019.08 1019.04 1019.04 1019.00 1019.04 1019.00 1018.96 1018.92 1018.88
1017.32 1017.40 1017.48 1017.64 1017.84 1018.04 1018.24 1018.48 1018.68 1018.92 1019.12 1019.32 1019.48 1019.64 1019.76 1019.92 1019.96 1020.08 1020.16 1020.24 1020.28 1020.36 1020.44 1020.52 1020.52 1020.56 1020.52 1020.52 1020.60 1020.64 1020.60 1020.56 1020.60 1020.60 1020.52 1020.52 1020.44 1020.36 1020.24 1020.20 1020.16 1020.12 1020.00 1019.96 1019.88 1019.80 1019.68 1019.60 1019.52 1019.40 1019.32 1019.24 1019.12 1019.04 1019.00 1018.96 1018.96 1018.92 1018.88 1018.84 1018.80 1018.80 1018.76 1018.72 1018.68 1018.68 1018.68 1018.64 1018.60
1017.24 1017.36 1017.44 1017.56 1017.76 1018.00 1018.28 1018.52 1018.72 1018.92 1019.12 1019.24 1019.40 1019.52 1019.68 1019.80 1019.88 1019.96 1020.08 1020.12 1020.16 1020.24 1020.28 1020.32 1020.36 1020.36 1020.36 1020.36 1020.40 1020.40 1020.40 1020.32 1020.28 1020.24 1020.16 1020.16 1020.12 1020.12 1020.04 1019.96 1019.88 1019.84 1019.72 1019.64 1019.52 1019.48 1019.40 1019.24 1019.20 1019.12 1019.00 1018.92 1018.84 1018.76 1018.68 1018.68 1018.68 1018.64 1018.60 1018.56 1018.52 1018.52 1018.52 1018.52 1018.44 1018.40 1018.36 1018.36 1018.32
1017.24 1017.32 1017.40 1017.52 1017.72 1018.00 1018.28 1018.52 1018.72 1018.92 1019.12 1019.24 1019.36 1019.48 1019.60 1019.68 1019.80 1019.88 1019.96 1019.96 1020.04 1020.08 1020.12 1020.12 1020.12 1020.12 1020.12 1020.12 1020.12 1020.12 1020.12 1020.00 1019.96 1019.92 1019.88 1019.88 1019.88 1019.88 1019.84 1019.72 1019.60 1019.44 1019.36 1019.28 1019.24 1019.12 1019.04 1018.96 1018.88 1018.80 1018.72 1018.64 1018.56 1018.52 1018.44 1018.40 1018.40 1018.36 1018.32 1018.24 1018.24 1018.24 1018.24 1018.24 1018.20 1018.12 1018.12 1018.04 1018.04
1017.16 1017.24 1017.40 1017.52 1017.76 1018.00 1018.28 1018.52 1018.72 1018.88 1019.04 1019.16 1019.28 1019.40 1019.52 1019.60 1019.68 1019.68 1019.72 1019.80 1019.84 1019.96 1019.96 1019.96 1019.96 1019.96 1019.96 1019.96 1019.96 1019.96 1019.88 1019.84 1019.68 1019.64 1019.64 1019.64 1019.68 1019.68 1019.56 1019.44 1019.24 1019.12 1019.04 1018.96 1018.92 1018.84 1018.76 1018.68 1018.60 1018.52 1018.48 1018.40 1018.36 1018.28 1018.24 1018.20 1018.12 1018.12 1018.04 1017.96 1017.96 1017.92 1017.92 1017.92 1017.88 1017.88 1017.84 1017.80 1017.76
1017.08 1017.16 1017.32 1017.52 1017.80 1018.00 1018.24 1018.48 1018.68 1018.84 1018.96 1019.08 1019.20 1019.28 1019.40 1019.48 1019.52 1019.52 1019.52 1019.60 1019.72 1019.84 1019.84 1019.84 1019.88 1019.88 1019.84 1019.84 1019.80 1019.72 1019.68 1019.56 1019.48 1019.40 1019.40 1019.40 1019.44 1019.40 1019.32 1019.12 1018.96 1018.80 1018.76 1018.68 1018.64 1018.56 1018.52 1018.40 1018.36 1018.28 1018.24 1018.16 1018.12 1018.04 1017.96 1017.96 1017.92 1017.84 1017.76 1017.72 1017.64 1017.56 1017.56 1017.56 1017.56 1017.56 1017.52 1017.52 1017.44
1017.00 1017.08 1017.24 1017.52 1017.76 1018.00 1018.24 1018.40 1018.64 1018.80 1018.92 1018.96 1019.04 1019.12 1019.20 1019.28 1019.32 1019.40 1019.48 1019.52 1019.68 1019.68 1019.68 1019.68 1019.68 1019.68 1019.60 1019.52 1019.48 1019.40 1019.36 1019.32 1019.32 1019.24 1019.20 1019.16 1019.16 1019.12 1019.00 1018.80 1018.68 1018.52 1018.44 1018.40 1018.36 1018.28 1018.24 1018.20 1018.12 1018.04 1017.96 1017.96 1017.84 1017.80 1017.72 1017.68 1017.64 1017.56 1017.52 1017.40 1017.32 1017.24 1017.24 1017.24 1017.24 1017.24 1017.20 1017.20 1017.12
1017.00 1017.04 1017.16 1017.40 1017.68 1017.96 1018.20 1018.40 1018.52 1018.68 1018.76 1018.80 1018.92 1018.96 1019.08 1019.16 1019.20 1019.28 1019.36 1019.40 1019.48 1019.52 1019.52 1019.44 1019.44 1019.36 1019.28 1019.24 1019.20 1019.16 1019.12 1019.12 1019.12 1019.12 1019.00 1018.96 1018.88 1018.80 1018.76 1018.60 1018.40 1018.24 1018.20 1018.16 1018.12 1018.04 1017.96 1017.92 1017.84 1017.80 1017.76 1017.72 1017.60 1017.48 1017.44 1017.40 1017.32 1017.24 1017.16 1017.08 1016.96 1016.92 1016.92 1016.96 1016.92 1016.88 1016.84 1016.80 1016.72
1017.04 1017.12 1017.20 1017.40 1017.64 1017.92 1018.12 1018.32 1018.44 1018.52 1018.56 1018.68 1018.80 1018.88 1018.96 1019.08 1019.08 1019.12 1019.16 1019.20 1019.28 1019.28 1019.28 1019.24 1019.20 1019.12 1019.04 1019.04 1019.04 1018.96 1018.92 1018.88 1018.88 1018.88 1018.80 1018.68 1018.56 1018.52 1018.48 1018.36 1018.12 1017.96 1017.84 1017.84 1017.84 1017.76 1017.68 1017.60 1017.56 1017.52 1017.48 1017.40 1017.32 1017.24 1017.16 1017.08 1017.00 1016.92 1016.80 1016.72 1016.64 1016.56 1016.56 1016.56 1016.60 1016.52 1016.48 1016.40 1016.36
1017.08 1017.12 1017.24 1017.40 1017.60 1017.84 1018.04 1018.20 1018.28 1018.40 1018.48 1018.56 1018.68 1018.80 1018.84 1018.88 1018.92 1018.92 1018.96 1019.04 1019.08 1019.12 1019.12 1019.04 1018.96 1018.88 1018.84 1018.84 1018.88 1018.80 1018.72 1018.64 1018.64 1018.60 1018.52 1018.40 1018.32 1018.24 1018.20 1018.08 1017.88 1017.68 1017.52 1017.52 1017.52 1017.48 1017.40 1017.32 1017.24 1017.24 1017.20 1017.12 1017.04 1016.96 1016.88 1016.80 1016.72 1016.60 1016.52 1016.40 1016.36 1016.24 1016.20 1016.20 1016.20 1016.20 1016.12 1016.00 1015.96
1017.12 1017.20 1017.24 1017.40 1017.60 1017.80 1017.96 1018.08 1018.20 1018.32 1018.40 1018.52 1018.56 1018.64 1018.68 1018.72 1018.76 1018.80 1018.88 1018.96 1018.96 1018.96 1018.92 1018.84 1018.80 1018.72 1018.68 1018.72 1018.68 1018.64 1018.52 1018.40 1018.28 1018.24 1018.24 1018.20 1018.12 1018.04 1017.96 1017.84 1017.64 1017.44 1017.32 1017.24 1017.24 1017.20 1017.16 1017.12 1017.00 1016.96 1016.92 1016.88 1016.80 1016.68 1016.64 1016.56 1016.44 1016.28 1016.16 1016.08 1016.04 1015.96 1015.92 1015.84 1015.80 1015.80 1015.76 1015.68 1015.64
Wind_Speed
7 7 7 7 6 6 5 4 5 5 5 5 6 6 5 5 5 4 3 3 3 3 3 2 2 2 2 3 3 2 2 2 2 1 1 1 1 1 1 1 1 1 1 1 1 1 1 1 1 1 0 0 0 1 1 1 1 1 1 2 2 2 2 3 3 4 4 4 3
8 7 7 7 6 5 5 4 4 4 4 4 5 5 5 5 5 5 4 3 3 3 3 2 2 2 3 3 2 2 2 2 2 2 1 1 1 1 1 1 1 1 1 1 1 1 1 1 1 1 1 0 1 1 1 1 1 1 2 2 2 2 2 3 3 4 4 4 3
8 7 7 7 6 6 5 5 5 6 5 4 4 4 4 4 5 4 4 3 3 3 3 3 2 3 3 3 2 2 2 2 2 2 1 1 1 1 1 1 1 1 1 1 1 1 1 1 1 1 1 1 1 1 1 1 2 2 2 3 2 2 2 2 3 3 3 3 3
8 8 8 8 9 9 8 7 7 7 6 5 4 4 4 4 4 4 4 4 3 3 3 3 3 3 3 3 3 2 2 2 2 2 1 1 1 1 1 1 1 1 1 1 1 1 1 1 1 1 1 1 1 2 1 1 2 2 2 2 2 2 2 2 2 2 2 3 3
8 8 8 8 10 9 9 8 9 8 7 5 5 4 4 3 3 4 4 4 3 3 3 3 3 3 3 3 3 3 2 1 2 1 1 1 1 1 1 1 1 1 1 1 1 1 1 1 1 1 1 1 2 2 2 1 2 2 2 2 2 2 2 3 2 2 2 3 3
8 8 7 8 9 8 8 8 10 9 8 6 7 6 5 4 4 4 5 5 4 4 4 4 3 3 3 3 3 3 2 2 1 1 1 1 1 1 1 1 1 1 1 1 1 1 1 1 1 1 1 2 2 2 2 2 2 2 2 2 2 2 2 3 3 3 3 4 4
9 9 8 8 8 8 8 8 9 8 8 7 8 8 8 6 6 6 6 5 4 4 3 3 4 4 3 3 3 2 2 2 1 1 2 1 1 1 1 1 1 1 1 1 1 1 1 1 1 1 2 2 2 2 2 2 2 3 3 3 3 2 3 3 3 3 3 5 6
8 8 9 9 9 9 10 10 9 8 8 7 8 9 9 8 8 7 7 5 5 4 4 3 4 4 4 3 3 3 2 2 2 2 2 2 2 2 2 2 2 2 2 2 2 2 2 1 1 1 2 2 2 2 2 3 3 3 4 4 3 3 3 3 3 3 4 5 6
7 7 8 8 8 9 10 10 10 9 9 8 8 9 9 9 9 8 7 5 5 4 4 3 4 4 4 4 3 3 3 3 3 2 2 2 2 2 2 1 2 2 2 2 2 2 2 1 2 2 2 2 2 2 3 3 3 4 4 4 4 4 3 3 4 4 4 5 6
8 8 8 8 8 9 9 10 9 9 10 9 9 9 9 9 8 7 6 5 5 5 4 4 4 4 4 4 3 3 3 2 2 3 2 2 2 2 2 1 1 2 2 2 2 2 2 2 2 3 3 3 3 3 3 3 4 4 4 4 4 4 5 5 4 5 5 5 6
10 10 9 9 9 9 9 9 8 8 9 9 9 9 8 8 7 7 6 5 5 5 5 4 5 5 4 4 3 3 3 2 2 2 2 2 2 2 2 2 2 2 2 2 2 2 2 2 3 3 4 4 4 4 4 4 4 5 5 4 5 5 6 6 5 5 5 5 6
10 10 9 9 10 10 9 9 8 8 8 9 9 8 8 7 7 7 6 6 6 6 5 4 5 5 5 4 3 3 3 3 3 3 2 2 2 2 2 2 2 2 2 2 2 2 2 3 3 4 4 4 4 4 4 5 5 5 5 5 5 5 6 7 6 5 4 5 6
11 10 10 9 10 10 9 9 8 7 8 9 8 8 7 6 7 7 7 7 6 5 5 4 4 4 4 4 3 3 3 3 3 3 2 2 2 2 3 3 3 3 3 3 3 3 3 4 4 4 5 5 4 4 4 5 5 5 6 6 6 6 7 7 7 6 5 5 6
11 11 10 10 10 10 9 9 7 7 8 9 8 7 7 6 6 6 6 6 6 5 5 4 4 3 3 4 3 3 3 3 3 3 3 3 2 3 3 3 3 3 3 3 3 3 4 4 5 5 5 5 5 5 5 5 5 6 6 6 7 7 7 7 7 6 6 6 7
11 11 11 11 10 9 9 9 7 7 8 8 8 7 6 6 6 6 5 5 5 5 4 4 4 3 3 3 4 4 4 3 3 3 3 3 3 3 3 3 3 3 3 3 3 4 5 5 5 5 5 6 6 6 5 5 6 6 6 7 7 7 8 8 7 7 7 7 7
11 11 11 11 10 9 9 8 7 7 7 8 7 7 6 6 6 5 5 5 5 4 4 4 4 3 3 3 4 4 4 3 3 3 3 3 3 3 3 3 4 3 3 3 3 4 5 5 5 6 6 6 6 6 6 6 6 6 7 7 7 8 8 8 8 7 7 8 8
12 11 11 11 11 10 9 8 7 7 7 8 8 7 7 6 5 5 5 5 5 4 4 4 4 4 4 4 4 4 3 3 3 3 4 4 4 4 4 4 4 4 4 4 4 5 5 5 5 6 6 6 6 6 6 6 6 7 7 8 8 8 8 8 8 8 8 8 9
12 12 11 11 11 11 10 9 8 8 8 9 8 7 7 6 6 5 5 5 5 5 5 5 4 4 4 4 4 4 4 4 4 4 4 4 4 4 4 4 4 4 4 4 5 5 6 5 5 5 6 6 6 6 7 7 7 7 8 8 8 8 8 8 8 8 8 9 10
12 12 12 12 12 11 11 10 10 9 9 9 8 7 7 6 6 6 5 5 5 5 6 5 4 4 4 4 4 4 4 4 4 4 4 4 4 4 4 4 4 4 4 5 5 6 6 6 6 5 5 6 6 6 7 7 7 7 8 8 8 8 8 8 9 9 9 9 10
13 13 13 12 12 11 11 11 10 10 9 8 8 8 7 7 6 6 6 6 5 5 5 5 5 4 4 4 4 4 4 4 4 4 4 4 4 4 5 5 4 4 5 5 6 6 6 6 6 6 6 6 6 7 7 7 7 8 8 8 8 8 9 9 9 10 10 10 10
14 14 13 12 12 11 11 10 10 9 9 8 8 8 7 7 6 6 6 6 5 5 5 5 5 5 4 4 4 4 4 3 4 4 4 4 4 5 5 4 4 4 5 5 6 6 7 6 6 6 6 6 7 7 7 7 7 8 8 8 8 9 9 10 10 10 10 10 10
14 13 12 12 11 10 10 9 9 9 9 8 8 7 7 6 6 5 5 5 5 5 5 4 5 5 5 5 4 4 4 3 4 4 4 4 4 4 4 4 4 5 5 6 6 6 7 7 6 6 6 6 7 7 8 8 8 8 9 9 9 10 10 10 10 10 10 11 11
13 12 11 10 10 9 9 9 9 9 9 8 7 7 6 6 5 5 5 5 5 5 5 4 4 4 4 4 4 4 3 3 3 4 4 4 4 4 4 4 5 6 6 6 6 6 6 6 6 6 6 6 7 8 8 8 8 8 9 9 10 10 10 10 10 10 10 11 11
12 11 9 8 9 9 9 9 9 9 9 8 7 6 6 6 5 5 5 5 5 4 4 3 3 3 4 4 4 4 4 4 4 4 4 4 4 4 4 4 5 6 6 6 6 6 6 6 5 6 6 6 7 8 8 8 8 8 9 9 10 10 10 10 10 10 10 11 10
11 10 9 8 9 9 9 9 10 9 9 8 7 6 6 5 5 5 5 5 4 4 4 4 3 3 3 3 4 4 4 4 4 4 4 4 4 4 4 4 5 5 5 6 8 10 11 9 8 6 6 7 7 8 8 8 9 9 9 9 10 10 10 11 11 11 11 11 10
10 10 10 10 9 10 10 10 10 10 9 7 7 6 5 5 5 5 5 5 4 4 4 4 3 3 3 3 4 4 4 4 4 5 5 5 5 5 5 4 5 5 5 7 10 12 14 14 13 11 9 7 7 7 7 7 8 9 9 10 10 10 10 11 11 11 11 10 10
10 10 10 10 10 10 10 10 9 9 8 7 7 6 5 5 5 5 5 4 4 4 3 3 3 4 4 3 4 4 5 4 4 5 5 5 6 6 6 5 5 5 5 8 12 13 14 15 15 15 13 9 7 7 7 7 8 9 9 9 9 10 10 11 11 11 11 10 10
11 11 10 10 10 10 10 9 9 9 8 7 7 6 5 5 5 5 4 4 3 3 3 3 3 3 3 3 4 5 5 5 5 5 5 5 6 6 7 6 6 6 8 11 13 14 15 15 16 16 15 13 9 7 7 7 7 8 8 8 9 9 10 10 10 10 10 10 10
11 11 11 11 11 10 9 9 9 9 8 7 6 6 5 5 5 4 4 4 4 3 3 3 2 2 2 3 4 5 5 5 5 5 5 5 6 7 7 8 7 8 10 13 14 15 16 16 16 17 17 16 11 8 6 6 7 7 7 7 8 8 9 9 9 9 9 10 9
11 11 11 12 11 10 9 9 8 8 7 6 5 5 5 5 5 4 4 4 4 4 3 2 2 3 4 5 4 4 5 5 5 5 5 6 7 8 8 9 8 9 11 14 15 16 16 17 17 17 17 17 14 10 6 6 6 7 7 7 8 9 9 9 10 10 9 9 9
11 11 11 11 11 10 9 8 7 6 6 5 5 5 5 5 5 5 5 5 4 3 3 3 3 4 5 5 4 5 5 5 5 6 6 7 8 9 9 9 9 10 11 14 16 16 17 17 17 18 18 18 15 11 7 6 7 7 7 8 8 9 9 9 9 9 10 10 9
11 11 11 11 10 9 8 7 6 6 6 6 6 5 5 5 5 4 4 4 3 3 3 3 4 5 5 5 5 6 6 7 7 7 8 8 9 9 10 9 10 10 12 15 16 17 17 17 18 18 18 19 16 12 8 7 7 7 7 8 9 10 9 9 9 9 10 10 10
10 10 10 10 10 9 8 7 6 6 6 5 5 5 5 5 3 3 3 3 3 4 4 5 6 6 6 6 6 6 7 8 8 9 9 9 9 9 9 9 9 10 12 15 16 17 17 18 18 18 19 19 16 12 9 8 7 7 7 8 9 9 10 10 9 10 10 11 10
10 10 10 10 9 9 8 7 6 6 5 5 5 5 5 4 4 4 4 3 3 4 4 5 5 6 6 6 6 6 7 8 8 9 9 9 9 9 9 9 8 10 13 16 17 17 18 18 18 19 19 19 15 12 9 8 8 7 8 9 9 9 9 10 10 10 11 11 10
10 10 10 9 9 8 8 7 6 6 5 5 5 5 4 4 5 5 4 4 3 3 3 4 4 4 5 5 6 7 8 9 9 9 9 9 8 9 10 11 10 12 14 17 17 18 18 19 19 19 19 18 13 10 8 9 9 9 10 10 10 10 10 10 10 10 11 11 11
10 10 10 9 9 8 8 7 6 6 5 5 5 5 5 5 4 4 4 3 3 3 3 4 4 4 5 6 7 8 9 10 10 10 9 8 8 9 10 12 12 13 15 17 18 18 19 19 20 20 19 16 11 8 8 8 8 9 10 11 11 12 11 11 10 10 10 10 11
10 10 10 10 9 8 7 7 6 6 6 6 6 5 5 5 4 3 3 3 3 4 4 4 4 5 7 7 8 8 9 9 9 9 9 9 9 10 11 12 12 13 15 17 18 19 19 20 20 20 18 14 10 9 8 8 8 9 10 11 12 12 11 10 10 10 10 10 11
9 9 10 10 9 8 7 7 7 6 6 6 5 5 4 4 3 3 3 4 4 4 5 5 5 7 7 8 8 8 9 8 9 9 10 10 10 11 11 12 13 13 14 15 17 19 19 20 20 20 18 14 11 9 9 8 8 9 10 10 11 11 10 9 8 9 10 11 13
8 8 9 9 9 8 8 7 7 7 6 6 5 4 3 3 3 3 3 4 4 5 5 5 6 7 7 7 8 8 9 9 9 10 10 11 11 11 12 12 13 13 14 15 17 19 20 20 21 21 19 16 12 10 8 8 9 10 10 10 10 10 10 9 8 8 9 11 15
7 7 8 8 8 8 7 7 7 6 5 4 4 4 4 4 3 3 3 3 4 4 5 6 7 7 7 7 8 8 9 9 9 10 11 11 12 13 13 13 13 14 15 16 18 19 20 21 21 21 20 16 12 10 8 8 9 10 11 10 10 9 9 9 8 8 9 10 13
6 6 7 7 7 7 7 7 6 5 4 4 4 4 4 3 3 3 3 3 4 4 5 6 7 8 8 7 8 8 9 10 10 10 10 11 12 12 13 13 14 14 14 15 17 19 20 21 22 22 20 16 12 10 8 8 9 11 12 11 10 9 9 9 8 8 9 9 10
Wind_Direction
164 166 168 168 166 163 159 155 152 150 150 151 154 157 157 151 149 151 155 155 150 149 149 150 141 134 130 131 130 129 129 135 143 153 160 155 162 169 171 173 170 171 166 159 157 155 155 159 164 169 181 201 212 228 234 218 203 203 207 218 225 229 234 242 252 252 250 247 247
166 166 164 162 158 152 146 144 144 145 147 150 151 153 153 151 148 151 155 157 152 145 140 136 130 126 126 129 128 128 131 137 145 151 155 160 166 174 176 171 173 176 172 162 163 159 156 158 164 168 175 188 212 224 228 212 206 215 224 230 230 232 237 245 253 256 257 257 254
163 161 158 156 153 151 149 147 149 149 149 149 147 148 149 149 147 147 148 150 142 135 130 129 129 128 126 127 124 124 131 138 144 149 156 163 171 176 176 170 171 175 178 162 165 162 160 160 173 181 186 195 218 232 231 206 212 225 237 241 238 235 238 247 253 255 257 260 256
160 159 159 158 159 159 157 153 152 151 150 146 144 144 145 145 141 140 138 136 131 128 129 131 129 127 125 125 125 126 129 141 149 154 161 170 173 176 176 170 173 173 172 166 170 167 164 164 181 201 215 218 231 238 237 216 219 230 240 245 242 241 244 252 255 255 256 260 257
165 165 164 163 164 161 157 151 150 149 148 144 143 143 142 140 137 133 132 130 133 134 133 129 127 125 123 120 124 125 129 142 155 159 160 175 178 178 178 180 180 180 175 173 176 174 171 171 185 212 221 227 234 239 240 231 230 235 241 245 243 244 249 257 258 255 255 259 257
169 168 165 161 159 156 152 148 147 146 146 146 145 144 144 145 141 139 137 136 136 133 129 126 125 123 121 118 120 124 129 140 153 159 170 183 183 183 185 191 187 183 180 178 180 178 176 180 199 213 222 225 240 242 238 229 235 240 245 250 245 245 249 254 256 256 256 258 260
166 163 161 158 156 153 149 147 144 144 144 146 147 148 148 148 144 141 139 136 133 132 132 132 130 130 128 126 127 131 137 147 158 172 182 188 190 192 194 190 186 184 187 182 182 182 184 187 206 222 228 228 237 235 229 220 227 237 246 252 249 247 248 252 253 255 257 259 261
161 160 158 157 156 153 150 147 145 145 147 150 151 150 149 147 144 140 137 134 137 142 143 139 137 136 136 136 139 144 150 158 167 177 185 187 190 192 194 190 186 186 187 186 189 189 189 192 211 225 231 233 240 232 220 207 215 231 244 255 256 254 250 253 252 253 257 260 262
157 157 155 155 156 153 151 149 148 149 150 152 151 149 148 145 143 142 141 143 147 146 142 138 138 137 136 139 147 153 160 167 172 177 180 183 187 191 192 192 190 187 185 184 191 190 191 198 217 226 230 232 237 232 218 200 212 228 242 254 259 258 255 253 252 253 255 258 261
158 156 154 155 156 153 149 147 148 148 147 146 147 146 146 145 145 145 146 147 143 141 140 142 140 140 143 150 156 162 168 171 172 173 178 183 185 189 193 198 202 198 191 185 191 192 195 206 222 228 231 234 237 234 224 209 219 231 241 252 258 262 262 260 255 252 253 255 258
159 157 157 157 157 152 147 145 146 145 143 142 144 145 146 146 147 147 145 140 139 144 148 149 147 150 154 160 165 168 169 171 171 173 177 184 187 191 198 208 216 215 207 194 194 196 203 213 225 231 233 234 236 233 228 218 225 234 243 252 257 262 265 265 260 256 253 254 257
158 157 157 156 154 151 148 146 146 144 143 143 145 147 148 149 149 147 144 141 145 150 154 155 156 157 159 161 165 166 168 170 173 175 178 184 189 195 203 213 220 221 216 203 197 200 208 217 225 231 235 235 234 232 228 223 228 237 245 252 255 259 264 267 264 260 255 254 257
156 156 156 155 154 152 149 147 146 146 146 146 149 150 151 152 151 149 147 148 150 151 154 158 162 162 161 160 163 164 168 171 174 178 181 186 191 198 206 215 219 221 218 208 201 204 212 218 223 230 236 238 238 235 230 226 231 239 247 254 256 259 262 266 266 264 260 257 257
156 156 157 156 155 153 150 148 148 148 149 150 153 153 152 153 155 155 153 153 152 151 152 158 165 167 165 161 161 164 167 170 173 179 187 194 196 202 210 217 218 219 218 212 205 207 213 221 224 229 235 242 244 241 236 230 234 241 248 255 258 260 263 265 266 265 263 259 259
158 159 158 157 157 155 152 150 151 152 153 154 155 155 154 155 160 159 157 153 151 149 150 154 162 166 166 162 162 164 166 169 173 181 190 200 203 207 212 220 219 219 216 212 210 213 218 224 226 229 234 241 247 246 242 236 238 242 247 251 256 259 262 264 264 264 262 259 261
162 161 160 159 158 157 155 154 154 155 156 157 157 157 156 158 161 161 159 154 151 148 150 155 158 161 165 169 167 166 166 171 177 185 195 205 207 211 215 221 221 220 216 215 218 222 224 226 228 230 234 240 246 249 248 245 244 246 247 250 253 256 258 261 261 260 258 257 259
164 164 164 162 161 160 159 158 157 157 158 158 158 159 159 158 161 163 163 158 152 151 153 158 157 159 164 172 172 171 170 175 183 192 200 208 211 214 219 224 224 221 218 219 229 233 233 230 229 230 233 238 244 248 251 251 251 251 251 251 252 253 255 256 257 256 256 256 257
168 168 167 166 165 164 162 161 160 160 160 159 160 161 161 159 160 163 163 160 155 154 155 157 159 162 165 169 174 177 179 183 192 200 206 211 214 220 226 231 229 224 220 223 233 240 242 239 233 230 231 236 242 247 251 253 254 255 255 255 254 253 252 252 252 253 254 255 256
171 170 170 171 169 167 165 164 163 163 162 160 159 159 160 160 160 159 159 162 162 158 154 154 159 165 168 169 174 181 187 190 199 206 212 214 217 224 231 238 236 229 225 227 235 242 246 247 241 237 235 238 243 247 250 252 254 255 256 256 255 254 251 250 250 250 251 252 254
173 173 174 174 171 169 167 166 165 163 160 158 156 156 158 161 159 158 159 165 166 161 155 154 159 165 169 170 176 185 194 197 202 209 216 216 220 227 233 238 238 234 230 229 236 242 245 248 246 242 241 242 247 250 252 253 254 254 255 256 255 253 251 251 251 251 251 250 252
176 176 176 174 171 170 168 167 163 159 157 155 155 156 157 159 160 161 161 162 161 161 160 162 165 169 172 175 181 188 197 199 203 211 218 220 225 231 234 237 238 237 235 234 238 240 243 247 247 246 245 246 248 250 252 254 255 255 254 255 254 253 252 252 252 252 251 251 251
178 177 174 172 171 169 166 162 158 155 154 154 154 154 155 157 160 158 155 151 155 161 168 173 175 177 179 181 185 189 194 198 203 211 219 225 232 236 238 236 237 238 240 241 240 240 241 245 246 245 245 246 247 249 251 253 255 256 257 256 256 256 255 254 253 253 252 251 251
177 174 171 169 167 164 160 156 154 153 152 152 152 152 153 155 153 148 145 149 158 168 175 181 183 185 186 186 186 188 192 200 210 216 221 226 236 240 239 235 233 236 239 242 241 239 239 244 245 242 240 240 244 246 249 250 252 254 256 257 258 258 257 256 254 253 252 252 251
173 170 167 164 162 159 157 155 154 153 153 154 154 153 152 150 146 145 148 157 167 174 180 184 185 186 186 186 187 191 198 208 220 226 228 226 231 235 235 232 231 234 238 242 240 237 236 239 239 237 235 234 239 243 245 245 246 248 251 255 258 259 259 257 255 253 252 252 252
169 166 162 160 160 159 158 157 156 156 156 157 154 151 149 147 148 150 155 164 174 180 184 187 185 183 181 185 190 195 202 212 224 234 240 239 235 231 230 232 234 235 237 242 247 248 248 247 244 239 234 233 237 240 242 241 241 243 246 250 254 258 261 261 259 256 253 252 251
166 164 162 162 162 161 161 161 159 158 156 153 150 149 149 149 150 154 160 169 177 182 184 185 187 188 186 186 191 198 206 214 221 230 239 248 249 245 240 238 240 238 239 244 252 256 257 258 257 255 250 241 238 237 239 239 237 239 241 245 249 254 259 263 262 260 257 254 251
167 166 165 163 163 164 164 162 158 155 153 152 153 153 152 149 151 157 164 172 176 178 180 185 192 194 192 186 195 206 213 219 219 223 231 240 251 255 256 252 249 245 244 249 255 259 262 263 263 263 262 257 246 238 236 239 237 238 240 243 246 250 254 258 262 263 262 260 256
171 169 165 163 166 166 163 157 155 155 156 158 157 153 148 146 152 160 169 174 172 174 182 192 193 192 189 193 208 216 220 223 222 223 227 233 243 250 255 258 256 253 253 255 259 262 264 265 266 266 267 267 261 250 240 241 242 242 242 243 245 248 250 253 257 260 262 262 260
173 168 165 166 167 164 160 157 159 160 160 156 151 145 144 148 158 166 172 176 183 191 197 198 184 181 193 212 220 224 226 227 226 225 227 232 240 246 250 254 256 257 258 260 262 264 266 267 267 268 268 269 267 260 248 242 245 246 247 246 246 247 248 250 252 255 257 259 260
172 168 167 168 166 163 161 164 162 159 153 146 143 143 147 155 166 174 182 190 200 204 201 181 178 193 211 221 224 228 231 232 228 225 227 233 240 245 248 250 251 255 258 260 263 265 267 267 268 269 269 270 269 265 256 245 245 246 248 250 248 247 248 250 252 253 254 257 259
173 170 169 167 164 163 163 162 155 149 143 141 145 150 158 168 180 188 193 197 202 201 189 169 190 211 222 226 228 234 238 240 235 231 230 234 241 245 249 251 251 254 257 260 263 265 266 268 268 269 269 270 269 265 256 246 245 246 247 250 249 248 248 249 250 251 251 253 256
174 172 169 166 164 162 159 152 146 143 142 146 153 161 170 180 187 191 193 193 191 188 187 189 209 223 232 235 234 237 240 243 241 237 234 234 239 244 249 252 252 254 257 259 262 264 265 267 268 269 269 270 270 267 261 251 248 247 248 249 249 248 247 248 250 250 250 250 252
175 172 169 165 162 158 152 146 143 143 146 151 160 169 178 186 188 190 192 196 193 196 203 211 220 228 235 237 238 240 241 242 242 242 241 239 240 243 248 253 254 255 257 259 261 263 265 266 268 269 270 271 271 270 264 257 253 251 250 249 248 246 245 246 248 250 250 250 252
175 172 168 164 159 154 148 145 143 144 148 156 168 178 184 189 196 201 203 202 198 203 209 217 222 228 233 234 237 241 244 246 245 244 243 241 241 244 248 251 253 255 256 259 262 264 266 268 270 271 272 273 272 270 265 260 257 255 253 252 250 248 245 244 246 248 250 251 252
175 171 167 162 156 151 148 145 144 147 154 166 180 188 194 199 206 209 209 203 198 203 214 223 225 230 235 238 238 241 247 252 251 249 246 243 242 244 248 252 254 256 258 261 264 266 268 270 271 272 273 274 272 268 262 259 257 256 254 254 254 251 248 246 246 247 248 249 251
175 170 165 159 154 151 149 147 148 154 165 181 192 199 205 209 212 212 208 199 198 208 219 225 226 231 237 240 240 241 243 247 251 252 251 246 243 245 249 253 256 259 260 262 265 267 269 271 272 273 273 273 270 265 260 257 257 256 256 256 256 255 252 249 248 247 248 248 249
176 170 163 158 155 154 152 151 155 165 181 196 202 207 210 214 216 211 200 189 201 215 224 226 228 232 236 239 241 242 243 243 248 252 254 251 247 248 251 256 259 261 263 265 267 269 270 271 272 273 273 272 267 262 259 256 256 256 256 256 256 255 254 252 250 249 248 247 248
177 170 162 157 157 157 156 157 166 179 193 205 209 210 211 212 214 209 200 191 204 218 228 231 234 237 239 241 245 248 248 246 246 249 253 254 250 250 253 258 262 263 265 266 268 269 271 271 272 272 271 270 266 262 259 257 256 256 257 257 258 256 253 252 251 250 248 246 249
176 168 161 157 157 158 160 165 178 189 199 206 210 210 211 213 214 209 201 194 202 214 226 236 240 242 244 244 250 254 254 250 246 247 250 253 252 252 254 259 263 265 266 267 268 269 270 271 271 271 270 269 266 263 260 259 258 258 258 258 259 258 255 251 250 251 250 248 250
171 164 158 154 155 158 163 173 186 194 199 202 210 214 215 216 216 212 204 198 205 215 227 238 246 249 251 251 254 257 259 257 250 247 248 251 254 256 257 260 264 266 267 268 269 270 271 271 271 271 271 269 267 264 261 260 260 260 259 258 259 259 257 253 250 250 251 251 250
162 157 153 151 153 158 166 178 189 196 198 202 213 217 218 217 218 214 210 209 216 224 233 244 250 254 256 257 258 259 261 262 258 253 250 251 255 258 260 262 265 267 269 269 270 271 272 272 272 272 271 269 267 264 260 258 259 259 258 257 257 258 259 258 254 251 251 251 251